ニート彗星

C/2002 P1 ( NEAT )

English version
Home page
Updated on October 10, 2003

---------------------------------------------------------------------

・ プロフィール

発見日 2002年8月7日
発見光度 19.6等
発見者 Near-Earth-Asteroid Tracking Team (Jet Propulsion Laboratory)

・ 軌道要素

Epoch 2001 Nov. 27.0 TT = JDT 2452240.5
T 2001 Nov. 23.60351 TT                                 MPC
q   6.5308090            (2000.0)            P               Q
z  +0.0023782      Peri.  347.80144     +0.50511080     +0.74790147
 +/-0.0000084      Node   310.67275     -0.73641607     +0.11324908
e   0.9844682      Incl.   34.60245     -0.45006050     +0.65407801

・ 星図

・ 光度変化

        m1 = 6.5 + 5 logΔ + 10.0 log r

---------------------------------------------------------------------

軌道要素はM.P.E.C. 2003-N25に掲載されたものです。
星図は StellaNavigator Ver.2.0 for Windows (アストロアーツ 編著 / アスキー出版局刊) で作成したものです。
光度グラフはComet for Windowsで作成したものです。

---------------------------------------------------------------------

Copyright(C) Seiichi Yoshida (comet@aerith.net). All rights reserved.